Location: DAV
(33.5613°N, 82.7640°W)
Time: 20:22:07
(UTC-05:00)

Tiangong 1 - Visible Passes

Search period start: 23 January 2018 00:00
Search period end: 02 February 2018 00:00
Orbit: 260 x 286 km, 42.8° (Epoch: 23 January)

Date Brightness Start Highest point End Pass type
(mag) Time Alt. Az. Time Alt. Az. Time Alt. Az.
23 Jan 2.4 19:29:40 10° WNW 19:31:09 30° W 19:31:09 30° W visible
24 Jan 2.6 19:28:52 10° W 19:30:56 24° SW 19:30:56 24° SW visible
25 Jan 3.6 19:28:31 10° WSW 19:29:37 12° SW 19:30:43 10° SSW visible
